Home > Weather > Hilo > Past weeks

Flag for USA Weather for the Past 2 Weeks in Hilo, Hawaii, USA

Now
70 °F

Partly sunny.


Feels Like: 70 °F
Forecast: 68 / 86 °F
Wind: 5 mph from Southwest

Location: Hilo International Airport

Current Time: May 5, 2016 at 6:33:49 AM

Latest Report: May 5, 2016 at 5:53 AM


Visibility: 10 mi

Pressure: 30.04 "Hg

Humidity: 81%

Dew Point: 64 °F

Location of HiloLocation

Historic Weather in Hilo — Graph

°F

Hilo Temperature Yesterday

Maximum temperature yesterday: 81 °F (at 1:53 PM)
Minimum temperature yesterday: 70 °F (at 2:53 AM)
Average temperature yesterday: 75 °F

High & Low Weather Summary for the Past Weeks

 TemperatureHumidityPressure
High83 °F (Apr 22, 10:53 AM)94% (Apr 23, 7:43 AM)30.18 "Hg (Apr 23, 7:43 AM)
Low67 °F (May 2, 5:53 AM)44% (Apr 22, 10:53 AM)30.01 "Hg (Apr 20, 3:53 PM)
Average74 °F77%30.09 "Hg
* Reported Apr 20 4:41 AM — May 5 4:53 AM, Hilo, Weather by CustomWeather, © 2016

Note: Actual official high and low records may vary slightly from our data, if they occured in-between our weather recording intervals... More about our weather records

Advertising

Hilo Weather History for the Previous 24 Hours

Scroll right to see more
 ConditionsComfort  
Time TempWeatherWind HumidityBarometerVisibility
4:53 AM
Thu, May 5
69 °FPassing clouds.5 mph87%30.03 "Hg10 mi
3:53 AM69 °FOvercast.6 mph79%30.03 "Hg10 mi
2:53 AM68 °FPassing clouds.5 mph78%30.03 "Hg10 mi
1:53 AM69 °FPassing clouds.7 mph79%30.06 "Hg10 mi
12:53 AM69 °FPassing clouds.6 mph79%30.07 "Hg10 mi
11:53 PM
Wed, May 4
70 °FPassing clouds.3 mph81%30.10 "Hg10 mi
10:53 PM70 °FClear.6 mph84%30.11 "Hg10 mi
9:53 PM72 °FPassing clouds.6 mph87%30.11 "Hg10 mi
8:53 PM73 °FRain. Passing clouds.8 mph84%30.10 "Hg5 mi
7:53 PM73 °FClear.6 mph81%30.08 "Hg10 mi
6:53 PM76 °FClear.No wind72%30.06 "Hg10 mi
5:53 PM78 °FPassing clouds.6 mph66%30.05 "Hg10 mi
4:53 PM80 °FSunny.10 mph62%30.04 "Hg10 mi
3:53 PM80 °FBroken clouds.13 mph64%30.03 "Hg10 mi
2:53 PM81 °FBroken clouds.10 mph58%30.04 "Hg10 mi
1:53 PM81 °FBroken clouds.14 mph62%30.05 "Hg10 mi
12:53 PM77 °FLight rain. Broken clouds.6 mph71%30.08 "Hg9 mi
12:08 PM79 °FPartly sunny.14 mph65%30.10 "Hg10 mi
12:00 PM77 °FPartly sunny.15 mph69%30.11 "Hg10 mi
10:53 AM78 °FBroken clouds.8 mph71%30.12 "Hg10 mi
10:10 AM75 °FLight rain. Partly sunny.7 mph83%30.13 "Hg9 mi
9:53 AM75 °FLight rain. Partly sunny.9 mph82%30.14 "Hg5 mi
8:53 AM78 °FPartly sunny.3 mph66%30.12 "Hg10 mi
7:53 AM74 °FPartly sunny.5 mph74%30.11 "Hg10 mi
6:53 AM71 °FPartly sunny.6 mph84%30.10 "Hg10 mi
Weather by CustomWeather, © 2016

See weather overviewHow to use our weather pages